Showing default

IRIDIUM 29, 24944

Orbit data source: Space-Track

IRIDIUM 29, 24944 is a payload satellite owned by Iridium (US) in LEO that was launched on Sun, 14 Sep 1997 UTC via a PROTON-K/17S40 launch vehicle from the Tyuratam Missile And Space Complex (TTMTR). Payload-class satellites include a variety of spacecraft equipped with specific instruments for various scientific and technological missions. These include communications satellites like Starlink; space stations such as the ISS; scientific satellites like the Hubble; Earth observation satellites from companies like Planet Labs, Umbra, and HawkEye 360; GPS; miniature CubeSats for education and research; and military/defense satellites.

Loading next visibility...
Identifier
24944, 1997-051A
Orbit
LEO
Country
Flag of USUS
Related business
Manufacturer
MOTO/LMMS
Mission
Non-operational Commercial Communications
Bus & Motor
LM700, Unknown motor
Mass
662 kg wet, 556 kg dry
Launch date (UTC)
1997-09-14 (28 years ago)
Launch vehicle
PROTON-K/17S40
Launch site
Tyuratam Missile And Space Complex (TTMTR)
Object type
Payload
Rocket body
Debris
Shape & HBR
Box + 2 Pan, 4.2 m
Radar Cross Section
5.666 m², Large (>1 m²)

Expand to show TLE details & history
Last TLE update: 1 day ago

TLE from 1 day ago
0 IRIDIUM 29
1 24944U 97051A   25260.01749640  .00000348  00000-0  11193-3 0  9994
2 24944  86.3907 105.3747 0002086  82.7117 277.4318 14.36534511466457
Epoch: 2025-09-17T00:25Z
TLE epoch observation values (Epoch: 2025-09-17T00:25:11.688Z)
Latitude
0.00003°
Longitude
102.87652°
Altitude
772.833 km
Speed
7.468 km/s
True Right ascension
07h 01m 29s
True Declination
0° 00' 00"
Sunlit
Object was in daylight at epoch
Visualization orbit readout
Latitude
Unknown
Longitude
Unknown
Altitude
Unknown
Speed
Unknown
Apparent Right ascension
Unknown
Apparent Declination
Unknown
Sunlit
N/A
Visualization observer readout
Local Sidereal Time
20:01:29
Azimuth
Unknown
Elevation
Unknown
Doppler factor
Unknown
Orbital elements
Apogee altitude
768.423 km
Perigee altitude
765.442 km
Semi-major axis
7,145.07 km
Eccentricity
0.00021
Inclination
86.3907°
RAAN
105.3747°
Arg. of periapsis
82.7117°
True anomaly
277.4081°
Mean anomaly
277.4318°
Eccentric anomaly
277.41995°
Mean motion
3.59363 °/min
Orbital period
100.18 mins
BSTAR
0.00011193
Loading maneuver chart data...
Computing Atmospheric mass density...

Documentation

Showing up to 5 results
|